| time (UTC) | temp F | wind direction | speed MPH | gust MPH | rain 1hr in | rain 24hr in | rain mn in | humidity % | barometer mb |
| 20260509085716 | 66 | 90 | 4.0 | 7.0 | 0.00 | 0.00 | 0.00 | 21 | 1012.6 |
| 20260509084713 | 66 | 98 | 4.0 | 7.0 | 0.00 | 0.00 | 0.00 | 21 | 1012.7 |
| 20260509082718 | 67 | 96 | 1.0 | 4.0 | 0.00 | 0.00 | 0.00 | 20 | 1012.8 |
| 20260509081708 | 67 | 105 | 2.0 | 3.0 | 0.00 | 0.00 | 0.00 | 20 | 1012.6 |
| 20260509080700 | 68 | 91 | 1.0 | 4.0 | 0.00 | 0.00 | 0.00 | 19 | 1012.7 |
| 20260509075715 | 68 | 86 | 2.0 | 5.0 | 0.00 | 0.00 | 0.00 | 19 | 1012.9 |
| 20260509073711 | 68 | 107 | 2.0 | 4.0 | 0.00 | 0.00 | 0.00 | 19 | 1012.9 |
| 20260509072705 | 68 | 102 | 3.0 | 6.0 | 0.00 | 0.00 | 0.00 | 19 | 1012.9 |
| 20260509070711 | 68 | 105 | 2.0 | 4.0 | 0.00 | 0.00 | 0.00 | 19 | 1013.2 |
| 20260509065702 | 69 | 107 | 1.0 | 3.0 | 0.00 | 0.00 | 0.00 | 19 | 1013.2 |
| 20260509064714 | 69 | 97 | 1.0 | 3.0 | 0.00 | 0.00 | 0.00 | 18 | 1013.3 |
| 20260509062701 | 69 | 87 | 1.0 | 5.0 | 0.00 | 0.00 | 0.00 | 19 | 1013.2 |
| 20260509060712 | 69 | 99 | 2.0 | 7.0 | 0.00 | 0.00 | 0.00 | 19 | 1013.3 |
| 20260509055708 | 68 | 90 | 1.0 | 7.0 | 0.00 | 0.00 | 0.00 | 19 | 1013.4 |
| 20260509054707 | 67 | 97 | 3.0 | 7.0 | 0.00 | 0.00 | 0.00 | 20 | 1013.4 |
| 20260509053713 | 67 | 81 | 4.0 | 5.0 | 0.00 | 0.00 | 0.00 | 20 | 1013.5 |
| 20260509051712 | 68 | 82 | 3.0 | 5.0 | 0.00 | 0.00 | 0.00 | 19 | 1013.7 |
| 20260509050702 | 69 | 76 | 3.0 | 4.0 | 0.00 | 0.00 | 0.00 | 19 | 1013.8 |
| 20260509045659 | 70 | 88 | 4.0 | 4.0 | 0.00 | 0.00 | 0.00 | 18 | 1013.8 |
| 20260509044713 | 69 | 94 | 1.0 | 3.0 | 0.00 | 0.00 | 0.00 | 18 | 1013.8 |
| 20260509043709 | 69 | 105 | 2.0 | 4.0 | 0.00 | 0.00 | 0.00 | 19 | 1013.8 |
| 20260509042703 | 68 | 105 | 0.0 | 3.0 | 0.00 | 0.00 | 0.00 | 20 | 1013.7 |
| 20260509041702 | 68 | 90 | 2.0 | 4.0 | 0.00 | 0.00 | 0.00 | 20 | 1013.5 |
| 20260509040703 | 68 | 146 | 1.0 | 5.0 | 0.00 | 0.00 | 0.00 | 21 | 1013.5 |
| 20260509035701 | 69 | 94 | 2.0 | 3.0 | 0.00 | 0.00 | 0.00 | 21 | 1013.4 |
| 20260509034656 | 69 | 115 | 1.0 | 3.0 | 0.00 | 0.00 | 0.00 | 21 | 1013.1 |
| 20260509033657 | 70 | 71 | 2.0 | 5.0 | 0.00 | 0.00 | 0.00 | 20 | 1012.9 |
| 20260509032708 | 71 | 76 | 3.0 | 5.0 | 0.00 | 0.00 | 0.00 | 19 | 1012.8 |
| 20260509031704 | 72 | 72 | 3.0 | 5.0 | 0.00 | 0.00 | 0.00 | 18 | 1012.7 |
| 20260509030701 | 74 | 63 | 2.0 | 4.0 | 0.00 | 0.00 | 0.00 | 16 | 1012.5 |
| 20260509025657 | 77 | 88 | 1.0 | 2.0 | 0.00 | 0.00 | 0.00 | 14 | 1012.4 |
| 20260509024709 | 79 | 35 | 0.0 | 1.0 | 0.00 | 0.00 | 0.00 | 13 | 1012.2 |
| 20260509023707 | 80 | 34 | 0.0 | 1.0 | 0.00 | 0.00 | 0.00 | 12 | 1012.1 |
| 20260509022701 | 81 | 44 | 0.0 | 0.0 | 0.00 | 0.00 | 0.00 | 12 | 1011.9 |
| 20260509021711 | 82 | 46 | 0.0 | 2.0 | 0.00 | 0.00 | 0.00 | 11 | 1011.8 |
| 20260509020706 | 83 | 30 | 0.0 | 3.0 | 0.00 | 0.00 | 0.00 | 10 | 1011.8 |
| 20260509015702 | 84 | 360 | 2.0 | 4.0 | 0.00 | 0.00 | 0.00 | 9 | 1011.8 |
| 20260509013657 | 85 | 13 | 1.0 | 5.0 | 0.00 | 0.00 | 0.00 | 8 | 1011.6 |
| 20260509012711 | 86 | 355 | 3.0 | 5.0 | 0.00 | 0.00 | 0.00 | 8 | 1011.6 |
| 20260509011704 | 86 | 23 | 5.0 | 10.0 | 0.00 | 0.00 | 0.00 | 7 | 1011.5 |
| 20260509010702 | 87 | 9 | 6.0 | 12.0 | 0.00 | 0.00 | 0.00 | 7 | 1011.6 |
| 20260509005712 | 87 | 5 | 8.0 | 12.0 | 0.00 | 0.00 | 0.00 | 7 | 1011.6 |
| 20260509004704 | 88 | 355 | 8.0 | 10.0 | 0.00 | 0.00 | 0.00 | 7 | 1011.6 |
| 20260509003656 | 88 | 329 | 4.0 | 8.0 | 0.00 | 0.00 | 0.00 | 7 | 1011.6 |
| 20260509002652 | 88 | 12 | 2.0 | 12.0 | 0.00 | 0.00 | 0.00 | 8 | 1011.7 |
| 20260509000657 | 88 | 302 | 1.0 | 14.0 | 0.00 | 0.00 | 0.00 | 8 | 1011.7 |
| 20260508235653 | 87 | 325 | 1.0 | 15.0 | 0.00 | 0.00 | 0.00 | 8 | 1011.0 |
| 20260508233708 | 89 | 115 | 5.0 | 9.0 | 0.00 | 0.00 | 0.00 | 8 | 1011.0 |
| 20260508232702 | 89 | 347 | 7.0 | 11.0 | 0.00 | 0.00 | 0.00 | 8 | 1011.0 |
| 20260508231658 | 88 | 82 | 4.0 | 14.0 | 0.00 | 0.00 | 0.00 | 8 | 1011.0 |
| 20260508225707 | 88 | 11 | 6.0 | 11.0 | 0.00 | 0.00 | 0.00 | 8 | 1011.2 |
| 20260508224704 | 88 | 360 | 2.0 | 13.0 | 0.00 | 0.00 | 0.00 | 8 | 1011.2 |
| 20260508223701 | 88 | 342 | 12.0 | 17.0 | 0.00 | 0.00 | 0.00 | 8 | 1011.2 |
| 20260508222650 | 88 | 320 | 12.0 | 18.0 | 0.00 | 0.00 | 0.00 | 8 | 1011.3 |
| 20260508220702 | 88 | 336 | 2.0 | 15.0 | 0.00 | 0.00 | 0.00 | 8 | 1011.4 |
| 20260508215656 | 88 | 301 | 5.0 | 15.0 | 0.00 | 0.00 | 0.00 | 8 | 1011.4 |
| 20260508214650 | 88 | 281 | 2.0 | 7.0 | 0.00 | 0.00 | 0.00 | 8 | 1011.6 |
| 20260508213708 | 88 | 206 | 3.0 | 12.0 | 0.00 | 0.00 | 0.00 | 9 | 1011.7 |
| 20260508212705 | 88 | 13 | 4.0 | 10.0 | 0.00 | 0.00 | 0.00 | 9 | 1011.8 |
| 20260508211655 | 88 | 15 | 4.0 | 14.0 | 0.00 | 0.00 | 0.00 | 9 | 1011.9 |
| 20260508210648 | 87 | 346 | 4.0 | 15.0 | 0.00 | 0.00 | 0.00 | 9 | 1012.1 |
| 20260508205703 | 87 | 34 | 1.0 | 14.0 | 0.00 | 0.00 | 0.00 | 9 | 1012.3 |
| 20260508204656 | 87 | 236 | 4.0 | 8.0 | 0.00 | 0.00 | 0.00 | 9 | 1012.4 |
| 20260508203649 | 87 | 291 | 6.0 | 15.0 | 0.00 | 0.00 | 0.00 | 9 | 1012.5 |
| 20260508202648 | 87 | 46 | 9.0 | 14.0 | 0.00 | 0.00 | 0.00 | 8 | 1012.6 |
| 20260508201658 | 87 | 318 | 0.0 | 13.0 | 0.00 | 0.00 | 0.00 | 8 | 1012.8 |
| 20260508200657 | 87 | 215 | 6.0 | 15.0 | 0.00 | 0.00 | 0.00 | 7 | 1012.8 |
| 20260508194704 | 86 | 343 | 3.0 | 13.0 | 0.00 | 0.00 | 0.00 | 8 | 1013.2 |
| 20260508193658 | 86 | 11 | 5.0 | 12.0 | 0.00 | 0.00 | 0.00 | 8 | 1013.3 |
| 20260508192647 | 86 | 348 | 10.0 | 15.0 | 0.00 | 0.00 | 0.00 | 8 | 1013.2 |
| 20260508191703 | 86 | 15 | 3.0 | 13.0 | 0.00 | 0.00 | 0.00 | 9 | 1013.4 |
| 20260508190654 | 86 | 28 | 6.0 | 10.0 | 0.00 | 0.00 | 0.00 | 9 | 1013.5 |
| 20260508185651 | 86 | 360 | 1.0 | 3.0 | 0.00 | 0.00 | 0.00 | 12 | 1013.5 |
| 20260508184657 | 85 | 306 | 1.0 | 9.0 | 0.00 | 0.00 | 0.00 | 12 | 1013.6 |
| 20260508182648 | 84 | 67 | 3.0 | 7.0 | 0.00 | 0.00 | 0.00 | 14 | 1013.8 |
| 20260508181646 | 83 | 135 | 1.0 | 10.0 | 0.00 | 0.00 | 0.00 | 14 | 1014.1 |
| 20260508180701 | 82 | 105 | 0.0 | 8.0 | 0.00 | 0.00 | 0.00 | 14 | 1014.2 |
| 20260508175647 | 81 | 360 | 1.0 | 9.0 | 0.00 | 0.00 | 0.00 | 15 | 1014.4 |
| 20260508174700 | 80 | 344 | 0.0 | 8.0 | 0.00 | 0.00 | 0.00 | 16 | 1014.5 |
| 20260508173656 | 80 | 321 | 7.0 | 11.0 | 0.00 | 0.00 | 0.00 | 16 | 1014.6 |
| 20260508172650 | 79 | 256 | 1.0 | 9.0 | 0.00 | 0.00 | 0.00 | 16 | 1014.7 |
| 20260508171648 | 78 | 304 | 5.0 | 9.0 | 0.00 | 0.00 | 0.00 | 16 | 1014.8 |
| 20260508170645 | 78 | 293 | 2.0 | 8.0 | 0.00 | 0.00 | 0.00 | 17 | 1015.0 |
| 20260508165654 | 77 | 360 | 3.0 | 8.0 | 0.00 | 0.00 | 0.00 | 17 | 1015.2 |
| 20260508164647 | 77 | 350 | 2.0 | 9.0 | 0.00 | 0.00 | 0.00 | 18 | 1015.3 |
| 20260508163642 | 76 | 347 | 6.0 | 8.0 | 0.00 | 0.00 | 0.00 | 18 | 1015.3 |
| 20260508161656 | 74 | 338 | 3.0 | 7.0 | 0.00 | 0.00 | 0.00 | 19 | 1015.4 |
| 20260508160653 | 73 | 340 | 2.0 | 5.0 | 0.00 | 0.00 | 0.00 | 20 | 1015.5 |
| 20260508155653 | 72 | 360 | 3.0 | 5.0 | 0.00 | 0.00 | 0.00 | 21 | 1015.5 |
| 20260508154703 | 70 | 338 | 4.0 | 7.0 | 0.00 | 0.00 | 0.00 | 23 | 1015.4 |
| 20260508153656 | 70 | 355 | 4.0 | 7.0 | 0.00 | 0.00 | 0.00 | 24 | 1015.5 |
| 20260508145642 | 66 | 342 | 5.0 | 8.0 | 0.00 | 0.00 | 0.00 | 27 | 1015.6 |
| 20260508144659 | 66 | 11 | 4.0 | 7.0 | 0.00 | 0.00 | 0.00 | 28 | 1015.6 |
| 20260508143653 | 65 | 5 | 4.0 | 8.0 | 0.00 | 0.00 | 0.00 | 28 | 1015.6 |
| 20260508141641 | 64 | 349 | 5.0 | 9.0 | 0.00 | 0.00 | 0.00 | 30 | 1015.6 |
| 20260508135647 | 63 | 349 | 5.0 | 7.0 | 0.00 | 0.00 | 0.00 | 32 | 1015.7 |
| 20260508133645 | 60 | 360 | 1.0 | 3.0 | 0.00 | 0.00 | 0.00 | 37 | 1015.4 |
| 20260508132657 | 58 | 21 | 0.0 | 1.0 | 0.00 | 0.00 | 0.00 | 39 | 1015.2 |
| 20260508131648 | 57 | 74 | 0.0 | 3.0 | 0.00 | 0.00 | 0.00 | 40 | 1015.3 |
| 20260508130650 | 56 | 46 | 1.0 | 4.0 | 0.00 | 0.00 | 0.00 | 39 | 1015.1 |
| 20260508125642 | 56 | 9 | 2.0 | 5.0 | 0.00 | 0.00 | 0.00 | 38 | 1015.2 |
| 20260508124658 | 57 | 5 | 3.0 | 6.0 | 0.00 | 0.00 | 0.00 | 38 | 1015.0 |
| 20260508123649 | 58 | 19 | 1.0 | 3.0 | 0.00 | 0.00 | 0.00 | 37 | 1014.7 |
| 20260508122643 | 58 | 16 | 0.0 | 2.0 | 0.00 | 0.00 | 0.00 | 37 | 1013.8 |
| 20260508121658 | 58 | 17 | 1.0 | 3.0 | 0.00 | 0.00 | 0.00 | 37 | 1013.7 |
| 20260508120654 | 59 | 18 | 0.0 | 1.0 | 0.00 | 0.00 | 0.00 | 36 | 1013.8 |
| 20260508115648 | 59 | 17 | 0.0 | 1.0 | 0.00 | 0.00 | 0.00 | 35 | 1013.8 |
| 20260508114639 | 59 | 18 | 1.0 | 3.0 | 0.00 | 0.00 | 0.00 | 35 | 1013.7 |
| 20260508113652 | 60 | 20 | 1.0 | 2.0 | 0.00 | 0.00 | 0.00 | 35 | 1013.7 |
| 20260508112649 | 60 | 18 | 0.0 | 3.0 | 0.00 | 0.00 | 0.00 | 35 | 1013.7 |
| 20260508111639 | 61 | 19 | 0.0 | 3.0 | 0.00 | 0.00 | 0.00 | 34 | 1013.7 |
| 20260508110654 | 61 | 20 | 2.0 | 3.0 | 0.00 | 0.00 | 0.00 | 34 | 1013.8 |
| 20260508105650 | 61 | 18 | 1.0 | 4.0 | 0.00 | 0.00 | 0.00 | 34 | 1013.7 |
| 20260508103641 | 61 | 360 | 3.0 | 7.0 | 0.00 | 0.00 | 0.00 | 36 | 1013.6 |
| 20260508102655 | 61 | 17 | 2.0 | 10.0 | 0.00 | 0.00 | 0.00 | 37 | 1013.6 |
| 20260508101646 | 61 | 16 | 5.0 | 9.0 | 0.00 | 0.00 | 0.00 | 38 | 1013.6 |
| 20260508100647 | 60 | 360 | 6.0 | 9.0 | 0.00 | 0.00 | 0.00 | 38 | 1013.6 |
| 20260508094651 | 58 | 15 | 4.0 | 7.0 | 0.00 | 0.00 | 0.00 | 38 | 1013.9 |
| 20260508093642 | 58 | 16 | 2.0 | 5.0 | 0.00 | 0.00 | 0.00 | 37 | 1014.0 |
| 20260508092642 | 57 | 16 | 1.0 | 3.0 | 0.00 | 0.00 | 0.00 | 37 | 1014.1 |
| 20260508091636 | 57 | 18 | 1.0 | 3.0 | 0.00 | 0.00 | 0.00 | 37 | 1014.3 |
| 20260508090649 | 56 | 17 | 1.0 | 4.0 | 0.00 | 0.00 | 0.00 | 36 | 1014.3 |